Location: Ch�risy
(50.2331°N, 2.9131°E)
Time: 01:40:34
(UTC+00:00)

Cosmos 1354 Rocket - Pass Details

Date: 17 January 2021
Orbit: 764 x 783 km, 74.0° (Epoch: 28 February)

Event Time Altitude Azimuth Distance (km) Brightness Sun altitude
Rises 17:23:04 0° 186° (S) 3,250 7.6 -10.2°
Reaches altitude 10° 17:25:28 10° 182° (S) 2,329 6.8 -10.6°
Maximum altitude 17:30:36 52° 107° (ESE) 971 4.2 -11.4°
Drops below altitude 10° 17:35:46 10° 32° (NNE) 2,351 6.1 -12.2°
Enters shadow 17:36:12 - 31° (NNE) 2,513 6.2 -12.2°
